Regional Weather Roundup
Issued by NWS Albany, NY

Home | Current Version | Previous Version | Text Only | Print | Product List | Glossary On
Versions: 1 2 3 4 5 6 7 8 9 10 11 12 13 14 15 16 17 18 19 20 21 22 23 24 25 26 27 28
000
ASUS41 KALY 261410
RWRALY

NEW YORK STATE HOURLY WEATHER ROUNDUP
NATIONAL WEATHER SERVICE ALBANY NY
1000 AM EDT THU APR 26 2018

NOTE: "FAIR" INDICATES FEW OR NO CLOUDS BELOW 12,000 FEET WITH NO
SIGNIFICANT WEATHER AND/OR NO OBSTRUCTIONS TO VISIBILITY.

NYZ032-033-038>043-046>054-057>066-NYZ062>081-082-084-261500-
EAST


CITY           SKY/WX    TMP DP  RH WIND       PRES   REMARKS
ALBANY         PTSUNNY   54  43  66 NW9       29.69S
GLENS FALLS    FAIR      53  44  71 SW12      29.65R
POUGHKEEPSIE   CLOUDY    56  44  64 W12       29.68R
NEWBURGH       MOSUNNY   55  45  67 W18G28    29.71R
MONTGOMERY     CLOUDY    54  41  61 NW12G18   29.71R
WHITE PLAINS   FAIR      57  44  62 NW18      29.69R
ISLIP          PTSUNNY   63  49  60 W16       29.68R
NEW YORK CITY  FAIR      58  42  55 W21G29    29.71R
CENTRAL PARK   FAIR      57  42  57 VRB7G22   29.74R
$$

NYZ005>009-017-018-044>046-055-056-261500-
CENTRAL


CITY           SKY/WX    TMP DP  RH WIND       PRES   REMARKS
FULTON         LGT RAIN  42  39  89 W18G26    29.76R
SYRACUSE       CLOUDY    42  42 100 W22       29.76R FOG
ROME           LGT RAIN  42  41  96 W10       29.76R FOG
ELMIRA         PTSUNNY   49  40  71 W17       29.80R
BINGHAMTON     CLOUDY    42  37  82 W12       29.75R
MONTICELLO     CLOUDY    47  39  74 W16       29.73R
$$

NYZ026>034-041>043-087-261500-
NORTH


CITY           SKY/WX    TMP DP  RH WIND       PRES   REMARKS
WATERTOWN      LGT RAIN  40  40 100 SW13      29.71R VSB 3/4 WCI  32
FORT DRUM      NOT AVBL
OGDENSBURG     DRIZZLE   45  44  97 SW10      29.65R
MASSENA        CLOUDY    45  45 100 SW14G21   29.64S FOG
SARANAC LAKE   CLOUDY    40  40 100 SW10      29.62R FOG     WCI  33
PLATTSBURGH    LGT RAIN  51  48  89 MISG      29.58R
$$

NYZ001>004-010>016-019>021-085-261500-
WEST


CITY           SKY/WX    TMP DP  RH WIND       PRES   REMARKS
NIAGARA FALLS  CLOUDY    46  35  65 W12       29.85S
BUFFALO        PTSUNNY   40  37  89 SW13G23   29.86R WCI  32
DUNKIRK        CLOUDY    40  35  83 SW14      29.91S WCI  32
JAMESTOWN      CLOUDY    39  34  82 W8        29.89R WCI  33
WELLSVILLE     CLOUDY    40  37  89 W14G21    29.84R WCI  32
ROCHESTER      LGT RAIN  43  39  86 W15       29.81R
PENN YAN       CLOUDY    44  36  73 W13G23    29.79R
$$

             KEY
       WCI = WIND CHILL INDEX
       VSB = VISIBILITY
       HX  = HEAT INDEX
$$




USA.gov is the U.S. government's official web portal to all federal, state and local government web resources and services.